Location: Unspecified
(41.5000°N, 0.0000°E)
Time: 10:13:40
(UTC+00:00)

deb Explorer IX - Pass Details

Date: 25 June 2019
Orbit: 539 x 1112 km, 38.8° (Epoch: 18 July)

Event Time Altitude Azimuth Distance (km) Brightness Sun altitude
Rises 17:32:59 0° 279° (W) 3,931 ? 20.6°
Reaches altitude 10° 17:36:00 10° 271° (W) 2,973 ? 20.0°
Maximum altitude 17:42:32 35° 209° (SSW) 1,663 ? 18.9°
Drops below altitude 10° 17:48:41 10° 147° (SSE) 2,796 ? 17.8°
Sets 17:51:28 0° 138° (SE) 3,670 ? 17.3°
